TimePDT,TemperatureF,Dew PointF,Humidity,Sea Level PressureIn,VisibilityMPH,Wind Direction,Wind SpeedMPH,Gust SpeedMPH,PrecipitationIn,Events,Conditions,WindDirDegrees,DateUTC
12:48 AM,48.2,44.6,87,29.99,9.0,Calm,Calm,-,N/A,,Overcast,0,2012-10-11 07:48:00
12:53 AM,48.0,44.1,86,29.99,9.0,North,3.5,-,N/A,,Overcast,350,2012-10-11 07:53:00
1:53 AM,48.0,45.0,89,29.99,4.0,Calm,Calm,-,N/A,,Overcast,0,2012-10-11 08:53:00
2:53 AM,48.0,45.0,89,29.98,2.5,Calm,Calm,-,N/A,,Overcast,0,2012-10-11 09:53:00
3:04 AM,48.2,44.6,87,29.98,2.5,Calm,Calm,-,N/A,,Overcast,0,2012-10-11 10:04:00
3:24 AM,48.2,44.6,87,29.98,3.0,Calm,Calm,-,N/A,,Overcast,0,2012-10-11 10:24:00
3:53 AM,48.0,46.0,93,29.98,5.0,Calm,Calm,-,N/A,,Overcast,0,2012-10-11 10:53:00
4:48 AM,48.2,44.6,87,29.96,5.0,Calm,Calm,-,N/A,,Overcast,0,2012-10-11 11:48:00
4:53 AM,48.0,45.0,89,29.96,5.0,ENE,3.5,-,N/A,,Overcast,70,2012-10-11 11:53:00
5:22 AM,48.2,44.6,87,29.96,6.0,ENE,5.8,-,N/A,,Overcast,60,2012-10-11 12:22:00
5:53 AM,48.0,45.0,89,29.96,7.0,Calm,Calm,-,N/A,,Overcast,0,2012-10-11 12:53:00
6:24 AM,48.2,44.6,87,29.96,7.0,Calm,Calm,-,N/A,,Overcast,0,2012-10-11 13:24:00
6:53 AM,48.0,45.0,89,29.96,8.0,Calm,Calm,-,N/A,,Overcast,0,2012-10-11 13:53:00
7:53 AM,48.0,45.0,89,29.96,7.0,Calm,Calm,-,N/A,,Overcast,0,2012-10-11 14:53:00
8:38 AM,48.2,44.6,87,29.96,7.0,Calm,Calm,-,N/A,,Overcast,0,2012-10-11 15:38:00
8:53 AM,48.0,45.0,89,29.97,7.0,Calm,Calm,-,N/A,,Overcast,0,2012-10-11 15:53:00
9:53 AM,48.9,45.0,86,29.97,7.0,Calm,Calm,-,N/A,,Overcast,0,2012-10-11 16:53:00
10:53 AM,50.0,46.0,86,29.96,7.0,East,3.5,-,N/A,,Overcast,80,2012-10-11 17:53:00
11:26 AM,51.8,44.6,76,29.95,8.0,Variable,3.5,-,N/A,,Overcast,0,2012-10-11 18:26:00
11:53 AM,52.0,44.1,74,29.95,8.0,Calm,Calm,-,N/A,,Overcast,0,2012-10-11 18:53:00
12:53 PM,53.1,45.0,74,29.94,7.0,Calm,Calm,-,N/A,,Overcast,0,2012-10-11 19:53:00
1:53 PM,52.0,44.1,74,29.92,7.0,West,8.1,-,N/A,,Overcast,260,2012-10-11 20:53:00
2:37 PM,53.6,44.6,72,29.90,7.0,SW,5.8,-,N/A,,Overcast,230,2012-10-11 21:37:00
2:53 PM,51.8,44.6,76,29.90,7.0,WSW,6.9,-,N/A,,Overcast,250,2012-10-11 21:53:00
3:53 PM,52.0,44.1,74,29.88,7.0,WSW,5.8,-,N/A,,Overcast,250,2012-10-11 22:53:00
4:53 PM,51.1,44.1,77,29.86,7.0,SW,4.6,-,N/A,,Overcast,230,2012-10-11 23:53:00
5:31 PM,51.8,42.8,71,29.85,7.0,SW,8.1,-,N/A,,Overcast,230,2012-10-12 00:31:00
5:53 PM,50.0,44.1,80,29.85,6.0,SSW,4.6,-,N/A,,Haze,200,2012-10-12 00:53:00
6:53 PM,50.0,44.1,80,29.84,7.0,Calm,Calm,-,N/A,,Overcast,0,2012-10-12 01:53:00
7:53 PM,50.0,44.1,80,29.84,6.0,Calm,Calm,-,N/A,,Haze,0,2012-10-12 02:53:00
8:53 PM,48.9,45.0,86,29.83,5.0,South,3.5,-,N/A,,Overcast,190,2012-10-12 03:53:00
9:53 PM,48.9,45.0,86,29.83,5.0,SE,3.5,-,N/A,,Overcast,130,2012-10-12 04:53:00
10:04 PM,48.2,44.6,87,29.83,6.0,ESE,4.6,-,N/A,,Overcast,120,2012-10-12 05:04:00
10:53 PM,48.9,45.0,86,29.83,6.0,SE,4.6,-,N/A,,Overcast,130,2012-10-12 05:53:00
11:53 PM,48.9,45.0,86,29.83,7.0,SE,3.5,-,N/A,,Overcast,140,2012-10-12 06:53:00